CW4745 Weather Reports


Display with metric or nautical units.
time (UTC)temp
F
wind
direction
speed
MPH
gust
MPH
rain 1hr
in
rain 24hr
in
rain mn
in
humidity
%
barometer
mb
20170627001804 53 44 1.0 3.0 0.00 0.00 0.00 78 1013.9
20170627000803 53 44 0.0 3.0 0.00 0.00 0.00 78 1013.9
20170626235802 53 40 1.0 3.0 0.00 0.00 0.00 78 1013.8
20170626234802 53 16 0.0 2.0 0.00 0.00 0.00 78 1013.9
20170626233802 53 16 1.0 2.0 0.00 0.00 0.00 78 1014.0
20170626232801 53 16 0.0 2.0 0.00 0.00 0.00 78 1014.1
20170626231801 54 11 1.0 2.0 0.00 0.00 0.00 78 1014.0
20170626230801 54 11 1.0 2.0 0.00 0.00 0.00 77 1014.1
20170626225806 54 10 0.0 2.0 0.00 0.00 0.00 77 1014.2
20170626224801 54 10 1.0 2.0 0.00 0.00 0.00 77 1014.3
20170626223801 55 11 0.0 0.0 0.00 0.00 0.00 77 1014.3
20170626222800 55 10 0.0 0.0 0.00 0.00 0.00 76 1014.4
20170626221800 55 11 0.0 0.0 0.00 0.00 0.00 76 1014.5
20170626220800 55 11 0.0 3.0 0.00 0.00 0.00 76 1014.5
20170626215758 56 11 1.0 3.0 0.00 0.00 0.00 75 1014.3
20170626214759 56 11 0.0 2.0 0.00 0.00 0.00 75 1014.3
20170626213755 56 11 2.0 3.0 0.00 0.00 0.00 74 1014.2
20170626212755 57 11 2.0 3.0 0.00 0.00 0.00 74 1014.2
20170626211755 57 11 0.0 1.0 0.00 0.00 0.00 73 1014.2
20170626210756 57 11 0.0 2.0 0.00 0.00 0.00 73 1014.3
20170626205756 58 11 0.0 2.0 0.00 0.00 0.00 72 1014.2
20170626204754 58 11 1.0 3.0 0.00 0.00 0.00 72 1014.1
20170626203754 58 13 1.0 3.0 0.00 0.00 0.00 71 1014.1
20170626202754 59 11 1.0 3.0 0.00 0.00 0.00 71 1014.1
20170626201754 59 10 1.0 3.0 0.00 0.00 0.00 70 1014.1
20170626200755 59 9 2.0 4.0 0.00 0.00 0.00 69 1014.1
20170626195755 60 30 1.0 4.0 0.00 0.00 0.00 69 1014.0
20170626194756 60 10 2.0 6.0 0.00 0.00 0.00 68 1014.0
20170626193755 60 10 2.0 6.0 0.00 0.00 0.00 67 1013.9
20170626192755 61 27 5.0 9.0 0.00 0.00 0.00 66 1014.0
20170626191755 61 9 4.0 6.0 0.00 0.00 0.00 66 1014.1
20170626190800 62 3 3.0 9.0 0.00 0.00 0.00 65 1014.0
20170626185755 62 11 4.0 7.0 0.00 0.00 0.00 63 1014.0
20170626184755 62 16 4.0 9.0 0.00 0.00 0.00 63 1013.9
20170626183753 63 356 4.0 9.0 0.00 0.00 0.00 63 1013.9
20170626182752 63 353 6.0 11.0 0.00 0.00 0.00 63 1013.9
20170626181754 63 331 3.0 12.0 0.00 0.00 0.00 62 1013.9
20170626180754 64 322 6.0 10.0 0.00 0.00 0.00 61 1014.0
20170626175753 64 315 4.0 10.0 0.00 0.00 0.00 61 1014.1
20170626174752 64 339 5.0 11.0 0.00 0.00 0.00 61 1014.2
20170626173752 65 318 7.0 10.0 0.00 0.00 0.00 60 1014.1
20170626172752 65 332 5.0 11.0 0.00 0.00 0.00 58 1014.3
20170626171751 65 338 4.0 7.0 0.00 0.00 0.00 58 1014.3
20170626170752 65 350 5.0 10.0 0.00 0.00 0.00 58 1014.3
20170626165752 65 329 7.0 13.0 0.00 0.00 0.00 57 1014.4
20170626164752 65 331 5.0 10.0 0.00 0.00 0.00 57 1014.4
20170626163750 66 4 6.0 11.0 0.00 0.00 0.00 56 1014.5
20170626162750 65 329 6.0 12.0 0.00 0.00 0.00 59 1014.5
20170626161748 65 323 4.0 12.0 0.00 0.00 0.00 58 1014.5
20170626160749 65 356 6.0 13.0 0.00 0.00 0.00 59 1014.5
20170626155750 65 329 3.0 14.0 0.00 0.00 0.00 59 1014.6
20170626154748 66 315 5.0 11.0 0.00 0.00 0.00 58 1014.6
20170626153748 65 326 5.0 11.0 0.00 0.00 0.00 59 1014.6
20170626152749 65 315 4.0 11.0 0.00 0.00 0.00 58 1014.7
20170626151749 65 339 5.0 11.0 0.00 0.00 0.00 58 1014.7
20170626150748 65 336 5.0 13.0 0.00 0.00 0.00 60 1014.8
20170626145749 65 345 4.0 11.0 0.00 0.00 0.00 60 1014.8
20170626144748 65 319 4.0 12.0 0.00 0.00 0.00 58 1014.7
20170626143748 66 300 8.0 12.0 0.00 0.00 0.00 58 1014.8
20170626142747 66 313 3.0 13.0 0.00 0.00 0.00 59 1014.7
20170626141747 66 347 5.0 12.0 0.00 0.00 0.00 58 1014.7
20170626140747 66 332 5.0 12.0 0.00 0.00 0.00 57 1014.7
20170626135751 67 346 5.0 13.0 0.00 0.00 0.00 56 1014.7
20170626134746 67 321 5.0 13.0 0.00 0.00 0.00 56 1014.6
20170626133747 67 331 6.0 13.0 0.00 0.00 0.00 55 1014.6
20170626132746 66 306 7.0 13.0 0.00 0.00 0.00 58 1014.7
20170626131745 67 315 9.0 13.0 0.00 0.00 0.00 57 1014.6
20170626131427 67 25 5.0 12.0 0.00 0.00 0.00 58 1014.6
20170626131142 67 45 7.0 9.0 0.00 0.00 0.00 58 1014.6
20170626130145 67 8 6.0 0.0 0.00 0.00 0.00 59 1014.7
20170626130103 67 8 6.0 0.0 0.00 0.00 0.00 56 1014.7
20170626125909 67 8 6.0 0.0 0.00 0.00 0.00 59 1014.7
20170626125241 67 8 6.0 13.0 0.00 0.00 0.00 59 1014.7
20170626124239 66 7 8.0 0.0 0.00 0.00 0.00 57 1014.7
20170626124215 66 0 8.0 13.0 0.00 0.00 0.00 57 1014.7
20170626123213 67 45 8.0 0.0 0.00 0.00 0.00 58 1014.6
20170626122724 67 42 5.0 13.0 0.00 0.00 0.00 58 1014.6
20170626121722 67 45 5.0 10.0 0.00 0.00 0.00 60 1014.6
20170626120722 66 18 6.0 13.0 0.00 0.00 0.00 61 1014.5
20170626115721 67 309 7.0 13.0 0.00 0.00 0.00 60 1014.4
20170626114722 65 14 7.0 12.0 0.00 0.00 0.00 63 1014.3
20170626113722 65 37 6.0 12.0 0.00 0.00 0.00 60 1014.4
20170626112720 64 34 5.0 7.0 0.00 0.00 0.00 59 1014.4
20170626111954 66 45 6.0 11.0 0.00 0.00 0.00 59 1014.4
20170626111602 67 14 1.0 2.0 0.00 0.00 0.00 61 1014.3
20170626111452 67 36 5.0 12.0 0.00 0.00 0.00 61 1014.4
20170626111152 67 20 7.0 9.0 0.00 0.00 0.00 61 1014.3
20170626110303 66 32 7.0 15.0 0.00 0.00 0.00 61 1014.2
20170626105610 66 45 0.0 0.0 0.00 0.00 0.00 60 1014.1
20170626104748 66 45 0.0 0.0 0.00 0.00 0.00 60 1014.1
20170626104659 66 45 0.0 0.0 0.00 0.00 0.00 60 1014.1
20170626103656 67 45 0.0 14.0 0.00 0.00 0.00 58 1014.0
20170626102657 66 45 6.0 14.0 0.00 0.00 0.00 59 1013.9
20170626101655 66 45 5.0 13.0 0.00 0.00 0.00 59 1013.9
20170626100653 65 45 8.0 14.0 0.00 0.00 0.00 59 1014.0
20170626095655 66 45 5.0 12.0 0.00 0.00 0.00 60 1013.9
20170626094651 65 27 5.0 14.0 0.00 0.00 0.00 62 1013.8
20170626093651 63 45 4.0 13.0 0.00 0.00 0.00 64 1013.9
20170626092652 64 45 6.0 15.0 0.00 0.00 0.00 64 1013.9
20170626090648 64 45 0.0 0.0 0.00 0.00 0.00 62 1013.8
20170626090444 64 45 0.0 0.0 0.00 0.00 0.00 62 1013.8
20170626085444 64 45 0.0 9.0 0.00 0.00 0.00 63 1013.7
20170626084440 65 45 0.0 0.0 0.00 0.00 0.00 61 1013.4
20170626083557 65 45 0.0 0.0 0.00 0.00 0.00 61 1013.4
20170626082555 65 45 2.0 0.0 0.00 0.00 0.00 63 1013.3
20170626082428 65 45 3.0 11.0 0.00 0.01 0.00 63 1013.3
20170626081433 65 42 4.0 13.0 0.00 0.01 0.00 67 1013.2
20170626080428 64 45 4.0 13.0 0.00 0.01 0.00 68 1013.1
20170626075428 64 14 4.0 11.0 0.00 0.01 0.00 68 1013.2
20170626074425 64 45 6.0 14.0 0.00 0.01 0.00 68 1013.2
20170626073426 64 313 7.0 15.0 0.00 0.01 0.00 69 1013.1
20170626072427 64 45 6.0 13.0 0.00 0.01 0.00 70 1013.1
20170626071427 63 32 5.0 12.0 0.00 0.01 0.00 69 1013.0
20170626070424 63 45 6.0 13.0 0.00 0.01 0.00 69 1012.8
20170626065427 63 24 6.0 12.0 0.00 0.01 0.00 70 1012.8
20170626064426 63 45 5.0 11.0 0.00 0.01 0.00 70 1012.8
20170626063427 62 45 5.0 14.0 0.01 0.01 0.00 71 1012.6
20170626062426 62 45 6.0 12.0 0.01 0.01 0.00 71 1012.5
20170626061425 62 306 6.0 14.0 0.01 0.01 0.00 72 1012.4
20170626060425 61 45 6.0 12.0 0.01 0.01 0.00 73 1012.3
20170626055426 60 303 7.0 13.0 0.01 0.01 0.00 74 1012.1
20170626054426 60 45 4.0 10.0 0.01 0.01 0.00 74 1012.1
20170626053424 60 298 5.0 13.0 0.00 0.00 0.00 74 1012.1
20170626052421 59 10 5.0 12.0 0.00 0.00 0.00 74 1012.0
20170626051420 59 29 6.0 14.0 0.00 0.00 0.00 75 1011.8
20170626050421 59 29 4.0 12.0 0.00 0.00 0.00 75 1011.7
20170626045421 59 15 4.0 11.0 0.00 0.00 0.00 75 1011.7
20170626044419 58 45 4.0 11.0 0.00 0.00 0.00 75 1011.6
20170626043419 57 17 3.0 9.0 0.00 0.00 0.00 76 1011.6
20170626042420 57 45 4.0 9.0 0.00 0.00 0.00 76 1011.6
20170626041418 56 300 4.0 9.0 0.00 0.00 0.00 76 1011.6
20170626040419 56 45 3.0 9.0 0.00 0.00 0.00 76 1011.4
20170626035416 56 300 3.0 6.0 0.00 0.00 0.00 76 1011.3
20170626034417 56 45 3.0 6.0 0.00 0.00 0.00 75 1011.0
20170626033417 57 45 3.0 7.0 0.00 0.00 0.00 75 1011.0
20170626032415 57 306 3.0 7.0 0.00 0.00 0.00 75 1011.0
20170626031416 57 45 3.0 9.0 0.00 0.00 0.00 75 1011.0
20170626030415 58 45 3.0 9.0 0.00 0.00 0.00 76 1010.9
20170626025415 58 302 4.0 9.0 0.00 0.00 0.00 76 1010.8
20170626024416 58 37 4.0 10.0 0.00 0.00 0.00 76 1010.6
20170626023416 58 45 6.0 10.0 0.00 0.00 0.00 77 1010.6
20170626022414 58 303 6.0 12.0 0.00 0.00 0.00 76 1010.6
20170626021413 58 45 7.0 12.0 0.00 0.00 0.00 75 1010.8
20170626020417 59 38 8.0 14.0 0.00 0.00 0.00 75 1010.9
20170626015413 59 45 7.0 12.0 0.00 0.00 0.00 75 1010.8
20170626014413 59 300 5.0 12.0 0.00 0.00 0.00 75 1010.9
20170626013413 59 45 8.0 14.0 0.00 0.00 0.00 75 1010.9
20170626012414 59 45 7.0 12.0 0.00 0.00 0.00 76 1010.9
20170626011413 59 45 7.0 13.0 0.00 0.00 0.00 77 1010.9
20170626010413 59 29 5.0 15.0 0.00 0.00 0.00 78 1010.7
20170626005412 59 45 7.0 13.0 0.00 0.00 0.00 78 1010.7
20170626004413 59 45 6.0 12.0 0.00 0.00 0.00 78 1010.6
20170626003413 58 45 5.0 12.0 0.00 0.00 0.00 79 1010.4
20170626002411 59 39 3.0 9.0 0.00 0.00 0.00 79 1010.4